C/2019 K1 ( ATLAS )

Japanese version
Home page
Updated on November 5, 2020

---------------------------------------------------------------------

* Profile

Discovery Date May 16, 2019
Magnitude 17.1 mag
Discoverer Asteroid Terrestrial-Impact Last Alert System (ATLAS) search program

* Pictures

* Orbital Elements

Epoch 2020 Feb. 1.0 TT = JDT 2458880.5
T 2020 Feb. 12.96291 TT                                 Rudenko
q   2.0125895            (2000.0)            P               Q
z  +0.0001152      Peri.  265.70661     +0.02610872     +0.28887325
 +/-0.0000021      Node    73.37491     +0.31733475     +0.90542659
e   0.9997682      Incl.   87.14888     -0.94795411     +0.31105455
From 228 observations 2019 May 16-2020 Aug. 24, mean residual 0".9.

* Finding Charts

* Magnitudes Graph

        m1 = 10.0 + 5 log d + 10.0 log r(t + 140)

---------------------------------------------------------------------

The orbital elements are published on M.P.E.C. 2020-S188.
The charts are made with StellaNavigator Ver.10 (AstroArts).
The magnitudes graphs are made with Comet for Windows.

---------------------------------------------------------------------

Copyright(C) Seiichi Yoshida (comet@aerith.net). All rights reserved.